User: anonymous   Login
Location: Unspecified
(0.0000°N, 0.0000°E)
Time: 14:50:20
(UTC+00:00)
Language:

M3MSAT - Orbit

View from above orbital plane
View from above orbital plane
View from above satellite
View from above satellite

Ground track
Ground track

The orbit data is extracted from the following two-line orbital elements,

1 41605U 16040G   17206.21227584 +.00000497 +00000-0 +26150-4 0  9992
2 41605 097.4596 268.1054 0011158 309.4935 050.5312 15.20150021060451
Epoch (UTC): 25 July 2017 05:05:40
Eccentricity: 0.0011158
inclination: 97.4596°
perigee height: 498 km
apogee height: 513 km
right ascension of ascending node: 268.1054°
argument of perigee: 309.4935°
revolutions per day: 15.20150021
mean anomaly at epoch: 50.5312°
orbit number at epoch: 6045

The dashed part of the orbit path shows where the satellite is in the earth's shadow,  

DLR